"Data set title: Gaging station water sample data. Usage: Event based table used with water chemistry collection from 01-Oct-2022 to 30-Sep-2023",,,,,,,,,,,,
,,,,,,,,,,,,,
"Site","Date","RecNum","SiteID","Flag_SiteID","LOGGERID","PROGID","VNOTCH_INST_0_0_01","Flag_VNOTCH_INST_0_0_01","SAMPLE_INST_0_0_01","Flag_SAMPLE_INST_0_0_01","STAGE_INST_0_0_01","Flag_STAGE_INST_0_0_01"
"","yyyy-MM-dd HH:mm:ss","count","","none","none","none","none","none","count","none","ft","none"
"nominal","datetime","nominal","data","code","nominal","nominal","data","code","data","code","data","code"
"GSWS10_123",2022-10-01 07:50:30,2345,110.00,"",123,17619.0,0,"",23,"",0.0050,""
"GSWS10_123",2022-10-01 21:08:30,2346,110.00,"",123,17619.0,0,"",24,"",0.0040,""
"GSWS10_123",2022-10-02 10:26:30,2347,110.00,"",123,17619.0,0,"",25,"",0.0040,""
"GSWS10_123",2022-10-02 23:44:30,2348,110.00,"",123,17619.0,0,"",26,"",0.0040,""
"GSWS10_123",2022-10-03 13:02:30,2349,110.00,"",123,17619.0,0,"",27,"",0.0040,""
"GSWS10_123",2022-10-04 02:20:30,2350,110.00,"",123,17619.0,0,"",28,"",0.0040,""
"GSWS10_123",2022-10-04 15:38:30,2351,110.00,"",123,17619.0,0,"",29,"",0.0030,""
"GSWS10_123",2022-10-04 17:17:30,2352,110.00,"",123,17619.0,0,"",30,"",0.0010,""
"GSWS10_123",2022-10-05 04:56:30,2353,110.00,"",123,17619.0,0,"",31,"",0.0020,""
"GSWS10_123",2022-10-05 18:14:30,2354,110.00,"",123,17619.0,0,"",32,"",0.0020,""
"GSWS10_123",2022-10-06 07:32:30,2355,110.00,"",123,17619.0,0,"",33,"",0.0010,""
"GSWS10_123",2022-10-06 20:50:30,2356,110.00,"",123,17619.0,0,"",34,"",0.0020,""
"GSWS10_123",2022-10-07 10:08:30,2357,110.00,"",123,17619.0,0,"",35,"",0.0020,""
"GSWS10_123",2022-10-07 23:26:30,2358,110.00,"",123,17619.0,0,"",36,"",0.0020,""
"GSWS10_123",2022-10-08 12:44:30,2359,110.00,"",123,17619.0,0,"",37,"",0.0020,""
"GSWS10_123",2022-10-09 02:02:30,2360,110.00,"",123,17619.0,0,"",38,"",0.0020,""
"GSWS10_123",2022-10-09 15:20:30,2361,110.00,"",123,17619.0,0,"",39,"",0.0020,""
"GSWS10_123",2022-10-10 04:38:30,2362,110.00,"",123,17619.0,0,"",40,"",0.0010,""
"GSWS10_123",2022-10-10 17:56:30,2363,110.00,"",123,17619.0,0,"",41,"",0.0020,""
"GSWS10_123",2022-10-11 07:14:30,2364,110.00,"",123,17619.0,0,"",42,"",0.0010,""
"GSWS10_123",2022-10-11 20:32:30,2365,110.00,"",123,17619.0,0,"",1,"",0.0040,""
"GSWS10_123",2022-10-12 09:50:30,2366,110.00,"",123,17619.0,0,"",2,"",0.0040,""
"GSWS10_123",2022-10-12 23:08:30,2367,110.00,"",123,17619.0,0,"",3,"",0.0040,""
"GSWS10_123",2022-10-13 12:26:30,2368,110.00,"",123,17619.0,0,"",4,"",0.0040,""
"GSWS10_123",2022-10-14 01:44:30,2369,110.00,"",123,17619.0,0,"",5,"",0.0030,""
"GSWS10_123",2022-10-14 15:02:30,2370,110.00,"",123,17619.0,0,"",6,"",0.0030,""
"GSWS10_123",2022-10-15 04:20:30,2371,110.00,"",123,17619.0,0,"",7,"",0.0030,""
"GSWS10_123",2022-10-15 17:38:30,2372,110.00,"",123,17619.0,0,"",8,"",0.0030,""
"GSWS10_123",2022-10-16 06:56:30,2373,110.00,"",123,17619.0,0,"",9,"",0.0030,""
"GSWS10_123",2022-10-16 20:14:30,2374,110.00,"",123,17619.0,0,"",10,"",0.0030,""
"GSWS10_123",2022-10-17 09:32:30,2375,110.00,"",123,17619.0,0,"",11,"",0.0030,""
"GSWS10_123",2022-10-17 22:50:30,2376,110.00,"",123,17619.0,0,"",12,"",0.0030,""
"GSWS10_123",2022-10-18 07:25:45,2377,110.00,"",123,17619.0,0,"",13,"",0.0030,""
"GSWS10_123",2022-10-18 12:08:30,2378,110.00,"",123,17619.0,0,"",14,"",0.0040,""
"GSWS10_123",2022-10-19 01:26:30,2379,110.00,"",123,17619.0,0,"",15,"",0.0040,""
"GSWS10_123",2022-10-19 14:44:30,2380,110.00,"",123,17619.0,0,"",16,"",0.0040,""
"GSWS10_123",2022-10-20 04:02:30,2381,110.00,"",123,17619.0,0,"",17,"",0.0040,""
"GSWS10_123",2022-10-20 17:20:30,2382,110.00,"",123,17619.0,0,"",18,"",0.0040,""
"GSWS10_123",2022-10-21 06:38:30,2383,110.00,"",123,17619.0,0,"",19,"",0.0040,""
"GSWS10_123",2022-10-21 19:56:30,2384,110.00,"",123,17619.0,0,"",20,"",0.0330,""
"GSWS10_123",2022-10-22 09:14:30,2385,110.00,"",123,17619.0,0,"",21,"",0.0200,""
"GSWS10_123",2022-10-22 22:32:30,2386,110.00,"",123,17619.0,0,"",22,"",0.0160,""
"GSWS10_123",2022-10-23 11:50:30,2387,110.00,"",123,17619.0,0,"",23,"",0.0120,""
"GSWS10_123",2022-10-24 01:08:30,2388,110.00,"",123,17619.0,0,"",24,"",0.0090,""
"GSWS10_123",2022-10-24 14:26:30,2389,110.00,"",123,17619.0,0,"",25,"",0.0480,""
"GSWS10_123",2022-10-25 03:44:30,2390,110.00,"",123,17619.0,0,"",26,"",0.0150,""
"GSWS10_123",2022-10-25 07:18:00,2391,110.00,"",123,17619.0,0,"",27,"",0.0120,""
"GSWS10_123",2022-10-25 17:02:30,2392,110.00,"",123,17619.0,0,"",28,"",0.0140,""
"GSWS10_123",2022-10-26 06:20:30,2393,110.00,"",123,17619.0,0,"",29,"",0.0440,""
"GSWS10_123",2022-10-26 19:38:30,2394,110.00,"",123,17619.0,0,"",30,"",0.0220,""
"GSWS10_123",2022-10-27 08:56:30,2395,110.00,"",123,17619.0,0,"",31,"",0.0140,""
"GSWS10_123",2022-10-27 22:14:30,2396,110.00,"",123,17619.0,0,"",32,"",0.0110,""
"GSWS10_123",2022-10-28 11:32:30,2397,110.00,"",123,17619.0,0,"",33,"",0.0100,""
"GSWS10_123",2022-10-29 00:50:30,2398,110.00,"",123,17619.0,0,"",34,"",0.0090,""
"GSWS10_123",2022-10-29 14:08:30,2399,110.00,"",123,17619.0,0,"",35,"",0.0080,""
"GSWS10_123",2022-10-30 03:26:30,2400,110.00,"",123,17619.0,0,"",36,"",0.0080,""
"GSWS10_123",2022-10-30 16:44:30,2401,110.00,"",123,17619.0,0,"",37,"",0.0080,""
"GSWS10_123",2022-10-31 06:02:30,2402,110.00,"",123,17619.0,0,"",38,"",0.0080,""
"GSWS10_123",2022-10-31 19:20:30,2403,110.00,"",123,17619.0,0,"",39,"",0.0080,""
"GSWS10_123",2022-11-01 08:38:30,2404,110.00,"",123,17619.0,0,"",40,"",0.0270,""
"GSWS10_123",2022-11-01 21:56:30,2405,110.00,"",123,17619.0,0,"",1,"",0.0380,""
"GSWS10_123",2022-11-02 11:14:30,2406,110.00,"",123,17619.0,0,"",2,"",0.0530,""
"GSWS10_123",2022-11-03 00:32:30,2407,110.00,"",123,17619.0,0,"",3,"",0.0380,""
"GSWS10_123",2022-11-03 13:50:30,2408,110.00,"",123,17619.0,0,"",4,"",0.0220,""
"GSWS10_123",2022-11-04 03:08:30,2409,110.00,"",123,17619.0,0,"",5,"",0.0490,""
"GSWS10_123",2022-11-04 09:46:30,2410,110.00,"",123,17619.0,0,"",6,"",0.1600,""
"GSWS10_123",2022-11-04 15:56:30,2411,110.00,"",123,17619.0,0,"",7,"",0.2560,""
"GSWS10_123",2022-11-04 19:19:45,2412,110.00,"",123,17619.0,0,"",8,"",0.3390,""
"GSWS10_123",2022-11-04 22:01:45,2413,110.00,"",123,17619.0,0,"",9,"",0.4170,""
"GSWS10_123",2022-11-05 00:15:45,2414,110.00,"",123,17619.0,0,"",10,"",0.4970,""
"GSWS10_123",2022-11-05 02:29:45,2415,110.00,"",123,17619.0,0,"",11,"",0.4940,""
"GSWS10_123",2022-11-05 09:07:45,2416,110.00,"",123,17619.0,0,"",12,"",0.1640,""
"GSWS10_123",2022-11-05 22:25:45,2417,110.00,"",123,17619.0,0,"",13,"",0.0750,""
"GSWS10_123",2022-11-06 11:43:45,2418,110.00,"",123,17619.0,0,"",14,"",0.0770,""
"GSWS10_123",2022-11-07 01:01:45,2419,110.00,"",123,17619.0,0,"",15,"",0.1170,""
"GSWS10_123",2022-11-07 14:19:45,2420,110.00,"",123,17619.0,0,"",16,"",0.1030,""
"GSWS10_123",2022-11-08 03:37:45,2421,110.00,"",123,17619.0,0,"",17,"",0.0800,""
"GSWS10_123",2022-11-08 16:55:45,2422,110.00,"",123,17619.0,0,"",18,"",0.0590,""
"GSWS10_123",2022-11-09 06:13:45,2423,110.00,"",123,17619.0,0,"",19,"",0.0490,""
"GSWS10_123",2022-11-09 19:31:45,2424,110.00,"",123,17619.0,0,"",20,"",0.0390,""
"GSWS10_123",2022-11-10 08:49:45,2425,110.00,"",123,17619.0,0,"",21,"",0.0310,""
"GSWS10_123",2022-11-10 22:07:45,2426,110.00,"",123,17619.0,0,"",22,"",0.0270,""
"GSWS10_123",2022-11-11 11:25:45,2427,110.00,"",123,17619.0,0,"",23,"",0.0240,""
"GSWS10_123",2022-11-12 00:43:45,2428,110.00,"",123,17619.0,0,"",24,"",0.0220,""
"GSWS10_123",2022-11-12 14:01:45,2429,110.00,"",123,17619.0,0,"",25,"",0.0200,""
"GSWS10_123",2022-11-13 03:19:45,2430,110.00,"",123,17619.0,0,"",26,"",0.0180,""
"GSWS10_123",2022-11-13 16:37:45,2431,110.00,"",123,17619.0,0,"",27,"",0.0170,""
"GSWS10_123",2022-11-14 05:55:45,2432,110.00,"",123,17619.0,0,"",28,"",0.0160,""
"GSWS10_123",2022-11-14 19:13:45,2433,110.00,"",123,17619.0,0,"",29,"",0.0150,""
"GSWS10_123",2022-11-15 08:31:45,2434,110.00,"",123,17619.0,0,"",30,"",0.0140,""
"GSWS10_123",2022-11-15 21:49:45,2435,110.00,"",123,17619.0,0,"",31,"",0.0130,""
"GSWS10_123",2022-11-16 11:07:45,2436,110.00,"",123,17619.0,0,"",32,"",0.0130,""
"GSWS10_123",2022-11-17 00:25:45,2437,110.00,"",123,17619.0,0,"",33,"",0.0120,""
"GSWS10_123",2022-11-17 13:43:45,2438,110.00,"",123,17619.0,0,"",34,"",0.0120,""
"GSWS10_123",2022-11-18 03:01:45,2439,110.00,"",123,17619.0,0,"",35,"",0.0120,""
"GSWS10_123",2022-11-18 16:19:45,2440,110.00,"",123,17619.0,0,"",36,"",0.0110,""
"GSWS10_123",2022-11-19 05:37:45,2441,110.00,"",123,17619.0,0,"",37,"",0.0110,""
"GSWS10_123",2022-11-19 18:55:45,2442,110.00,"",123,17619.0,0,"",38,"",0.0110,""
"GSWS10_123",2022-11-20 08:13:45,2443,110.00,"",123,17619.0,0,"",39,"",0.0100,""
"GSWS10_123",2022-11-20 21:31:45,2444,110.00,"",123,17619.0,0,"",40,"",0.0100,""
"GSWS10_123",2022-11-21 09:03:15,2445,110.00,"",123,17619.0,0,"",41,"",0.0100,""
"GSWS10_123",2022-11-21 10:49:45,2446,110.00,"",123,17619.0,0,"",1,"",0.0090,""
"GSWS10_123",2022-11-22 00:07:45,2447,110.00,"",123,17619.0,0,"",2,"",0.0090,""
"GSWS10_123",2022-11-22 13:25:45,2448,110.00,"",123,17619.0,0,"",3,"",0.0090,""
"GSWS10_123",2022-11-23 02:43:45,2449,110.00,"",123,17619.0,0,"",4,"",0.0220,""
"GSWS10_123",2022-11-23 16:01:45,2450,110.00,"",123,17619.0,0,"",5,"",0.0160,""
"GSWS10_123",2022-11-24 05:19:45,2451,110.00,"",123,17619.0,0,"",6,"",0.0140,""
"GSWS10_123",2022-11-24 18:37:45,2452,110.00,"",123,17619.0,0,"",7,"",0.0140,""
"GSWS10_123",2022-11-25 07:55:45,2453,110.00,"",123,17619.0,0,"",8,"",0.0130,""
"GSWS10_123",2022-11-25 21:13:45,2454,110.00,"",123,17619.0,0,"",9,"",0.0140,""
"GSWS10_123",2022-11-26 10:31:45,2455,110.00,"",123,17619.0,0,"",10,"",0.0150,""
"GSWS10_123",2022-11-26 23:49:45,2456,110.00,"",123,17619.0,0,"",11,"",0.0140,""
"GSWS10_123",2022-11-27 13:07:45,2457,110.00,"",123,17619.0,0,"",12,"",0.0380,""
"GSWS10_123",2022-11-28 02:25:45,2458,110.00,"",123,17619.0,0,"",13,"",0.0970,""
"GSWS10_123",2022-11-28 15:43:45,2459,110.00,"",123,17619.0,0,"",14,"",0.1090,""
"GSWS10_123",2022-11-29 05:01:45,2460,110.00,"",123,17619.0,0,"",15,"",0.0700,""
"GSWS10_123",2022-11-29 18:19:45,2461,110.00,"",123,17619.0,0,"",16,"",0.0570,""
"GSWS10_123",2022-11-30 07:37:45,2462,110.00,"",123,17619.0,0,"",17,"",0.0810,""
"GSWS10_123",2022-11-30 12:03:45,2463,110.00,"",123,17619.0,0,"",18,"",0.2570,""
"GSWS10_123",2022-11-30 16:29:45,2464,110.00,"",123,17619.0,0,"",19,"",0.2900,""
"GSWS10_123",2022-11-30 23:07:45,2465,110.00,"",123,17619.0,0,"",20,"",0.2370,""
"GSWS10_123",2022-12-01 05:45:45,2466,110.00,"",123,17619.0,0,"",21,"",0.1840,""
"GSWS10_123",2022-12-01 14:21:45,2467,110.00,"",123,17619.0,0,"",22,"",0.1370,""
"GSWS10_123",2022-12-02 19:31:15,2468,110.00,"",123,17619.0,0,"",23,"",0.0630,""
"GSWS10_123",2022-12-02 21:39:45,2469,110.00,"",123,17619.0,0,"",24,"",0.0610,""
"GSWS10_123",2022-12-03 10:57:45,2470,110.00,"",123,17619.0,0,"",25,"",0.0500,""
"GSWS10_123",2022-12-04 00:15:45,2471,110.00,"",123,17619.0,0,"",26,"",0.0460,""
"GSWS10_123",2022-12-04 13:33:45,2472,110.00,"",123,17619.0,0,"",27,"",0.0420,""
"GSWS10_123",2022-12-05 02:51:45,2473,110.00,"",123,17619.0,0,"",28,"",0.0400,""
"GSWS10_123",2022-12-05 16:09:45,2474,110.00,"",123,17619.0,0,"",29,"",0.0380,""
"GSWS10_123",2022-12-06 05:27:45,2475,110.00,"",123,17619.0,0,"",30,"",0.0380,""
"GSWS10_123",2022-12-06 18:45:45,2476,110.00,"",123,17619.0,0,"",31,"",0.0380,""
"GSWS10_123",2022-12-07 08:03:45,2477,110.00,"",123,17619.0,0,"",32,"",0.0380,""
"GSWS10_123",2022-12-07 21:21:45,2478,110.00,"",123,17619.0,0,"",33,"",0.0360,""
"GSWS10_123",2022-12-08 10:39:45,2479,110.00,"",123,17619.0,0,"",34,"",0.0410,""
"GSWS10_123",2022-12-08 23:57:45,2480,110.00,"",123,17619.0,0,"",35,"",0.0500,""
"GSWS10_123",2022-12-09 13:15:45,2481,110.00,"",123,17619.0,0,"",36,"",0.0740,""
"GSWS10_123",2022-12-10 02:33:45,2482,110.00,"",123,17619.0,0,"",37,"",0.1590,""
"GSWS10_123",2022-12-10 09:11:45,2483,110.00,"",123,17619.0,0,"",38,"",0.1690,""
"GSWS10_123",2022-12-10 15:49:45,2484,110.00,"",123,17619.0,0,"",39,"",0.1670,""
"GSWS10_123",2022-12-10 22:27:45,2485,110.00,"",123,17619.0,0,"",40,"",0.1650,""
"GSWS10_123",2022-12-11 11:45:45,2486,110.00,"",123,17619.0,0,"",41,"",0.1430,""
"GSWS10_123",2022-12-12 01:03:45,2487,110.00,"",123,17619.0,0,"",42,"",0.1260,""
"GSWS10_123",2022-12-12 14:21:45,2488,110.00,"",123,17619.0,0,"",1,"",0.1110,""
"GSWS10_123",2022-12-13 03:39:45,2489,110.00,"",123,17619.0,0,"",2,"",0.0960,""
"GSWS10_123",2022-12-13 16:57:45,2490,110.00,"",123,17619.0,0,"",3,"",0.0820,""
"GSWS10_123",2022-12-14 06:15:45,2491,110.00,"",123,17619.0,0,"",4,"",0.0700,""
"GSWS10_123",2022-12-14 19:33:45,2492,110.00,"",123,17619.0,0,"",5,"",0.0600,""
"GSWS10_123",2022-12-15 08:51:45,2493,110.00,"",123,17619.0,0,"",6,"",0.0530,""
"GSWS10_123",2022-12-15 22:09:45,2494,110.00,"",123,17619.0,0,"",7,"",0.0490,""
"GSWS10_123",2022-12-16 11:27:45,2495,110.00,"",123,17619.0,0,"",8,"",0.0450,""
"GSWS10_123",2022-12-17 00:45:45,2496,110.00,"",123,17619.0,0,"",9,"",0.0420,""
"GSWS10_123",2022-12-17 14:03:45,2497,110.00,"",123,17619.0,0,"",10,"",0.0400,""
"GSWS10_123",2022-12-18 03:21:45,2498,110.00,"",123,17619.0,0,"",11,"",0.0380,""
"GSWS10_123",2022-12-18 16:39:45,2499,110.00,"",123,17619.0,0,"",12,"",0.0360,""
"GSWS10_123",2022-12-19 05:57:45,2500,110.00,"",123,17619.0,0,"",13,"",0.0360,""
"GSWS10_123",2022-12-19 19:15:45,2501,110.00,"",123,17619.0,0,"",14,"",0.0340,""
"GSWS10_123",2022-12-20 08:33:45,2502,110.00,"",123,17619.0,0,"",15,"",0.0340,""
"GSWS10_123",2022-12-20 21:51:45,2503,110.00,"",123,17619.0,0,"",16,"",0.1370,""
"GSWS10_123",2022-12-21 11:09:45,2504,110.00,"",123,17619.0,0,"",17,"",0.1230,""
"GSWS10_123",2022-12-22 00:27:45,2505,110.00,"",123,17619.0,0,"",18,"",0.1030,""
"GSWS10_123",2022-12-22 13:45:45,2506,110.00,"",123,17619.0,0,"",19,"",0.0890,""
"GSWS10_123",2022-12-23 03:03:45,2507,110.00,"",123,17619.0,0,"",20,"",0.0820,""
"GSWS10_123",2022-12-23 16:21:45,2508,110.00,"",123,17619.0,0,"",21,"",0.1200,""
"GSWS10_123",2022-12-24 05:39:45,2509,110.00,"",123,17619.0,0,"",22,"",0.1180,""
"GSWS10_123",2022-12-24 13:48:30,2510,110.00,"",123,17619.0,0,"",23,"",0.1610,""
"GSWS10_123",2022-12-24 18:14:30,2511,110.00,"",123,17619.0,0,"",24,"",0.2620,""
"GSWS10_123",2022-12-24 22:40:30,2512,110.00,"",123,17619.0,0,"",25,"",0.2570,""
"GSWS10_123",2022-12-25 05:18:30,2513,110.00,"",123,17619.0,0,"",26,"",0.2330,""
"GSWS10_123",2022-12-25 11:56:30,2514,110.00,"",123,17619.0,0,"",27,"",0.2020,""
"GSWS10_123",2022-12-25 18:34:30,2515,110.00,"",123,17619.0,0,"",28,"",0.1760,""
"GSWS10_123",2022-12-26 07:52:30,2516,110.00,"",123,17619.0,0,"",29,"",0.1390,""
"GSWS10_123",2022-12-26 21:10:30,2517,110.00,"",123,17619.0,0,"",30,"",0.1310,""
"GSWS10_123",2022-12-27 03:48:30,2518,110.00,"",123,17619.0,0,"",31,"",0.1900,""
"GSWS10_123",2022-12-27 09:59:45,2519,110.00,"",123,17619.0,0,"",32,"",0.2550,""
"GSWS10_123",2022-12-27 13:56:00,2520,110.00,"",123,17619.0,0,"",33,"",0.3360,""
"GSWS10_123",2022-12-27 16:38:00,2521,110.00,"",123,17619.0,0,"",34,"",0.4200,""
"GSWS10_123",2022-12-27 19:20:00,2522,110.00,"",123,17619.0,0,"",35,"",0.4590,""
"GSWS10_123",2022-12-27 22:02:00,2523,110.00,"",123,17619.0,0,"",36,"",0.4690,""
"GSWS10_123",2022-12-28 00:44:00,2524,110.00,"",123,17619.0,0,"",37,"",0.4580,""
"GSWS10_123",2022-12-28 03:26:00,2525,110.00,"",123,17619.0,0,"",38,"",0.4350,""
"GSWS10_123",2022-12-28 06:08:00,2526,110.00,"",123,17619.0,0,"",39,"",0.4090,""
"GSWS10_123",2022-12-28 09:30:00,2527,110.00,"",123,17619.0,0,"",40,"",0.3760,""
"GSWS10_123",2022-12-28 12:52:00,2528,110.00,"",123,17619.0,0,"",41,"",0.3480,""
"GSWS10_123",2022-12-28 17:18:00,2529,110.00,"",123,17619.0,0,"",42,"",0.3180,""
"GSWS10_123",2022-12-28 21:44:00,2530,110.00,"",123,17619.0,0,"",43,"",0.2880,""
"GSWS10_123",2022-12-29 02:10:00,2531,110.00,"",123,17619.0,0,"",44,"",0.2610,""
"GSWS10_123",2022-12-29 08:48:00,2532,110.00,"",123,17619.0,0,"",45,"",0.2360,""
"GSWS10_123",2022-12-29 13:14:00,2533,110.00,"",123,17619.0,0,"",46,"",0.2730,""
"GSWS10_123",2022-12-29 17:40:00,2534,110.00,"",123,17619.0,0,"",47,"",0.3140,""
"GSWS10_123",2022-12-29 22:06:00,2535,110.00,"",123,17619.0,0,"",48,"",0.3350,""
"GSWS10_123",2022-12-30 01:06:45,2536,110.00,"",123,17619.0,0,"",49,"",0.4080,""
"GSWS10_123",2022-12-30 03:48:45,2537,110.00,"",123,17619.0,0,"",50,"",0.4320,""
"GSWS10_123",2022-12-30 06:30:45,2538,110.00,"",123,17619.0,0,"",51,"",0.4220,""
"GSWS10_123",2022-12-30 09:52:45,2539,110.00,"",123,17619.0,0,"",52,"",0.3910,""
"GSWS10_123",2022-12-30 13:14:45,2540,110.00,"",123,17619.0,0,"",53,"",0.3610,""
"GSWS10_123",2022-12-30 16:36:45,2541,110.00,"",123,17619.0,0,"",54,"",0.3450,""
"GSWS10_123",2022-12-30 19:58:45,2542,110.00,"",123,17619.0,0,"",55,"",0.3440,""
"GSWS10_123",2022-12-31 00:24:45,2543,110.00,"",123,17619.0,0,"",56,"",0.3210,""
"GSWS10_123",2022-12-31 04:50:45,2544,110.00,"",123,17619.0,0,"",57,"",0.2980,""
"GSWS10_123",2022-12-31 09:16:45,2545,110.00,"",123,17619.0,0,"",58,"",0.2720,""
"GSWS10_123",2022-12-31 15:54:45,2546,110.00,"",123,17619.0,0,"",59,"",0.2330,""
"GSWS10_123",2022-12-31 22:32:45,2547,110.00,"",123,17619.0,0,"",60,"",0.1990,""
"GSWS10_123",2023-01-01 05:10:45,2548,110.00,"",123,17619.0,0,"",61,"",0.1750,""
"GSWS10_123",2023-01-01 18:28:45,2549,110.00,"",123,17619.0,0,"",62,"",0.1430,""
"GSWS10_123",2023-01-02 07:46:45,2550,110.00,"",123,17619.0,0,"",63,"",0.1260,""
"GSWS10_123",2023-01-02 21:04:45,2551,110.00,"",123,17619.0,0,"",64,"",0.1130,""
"GSWS10_123",2023-01-03 09:32:00,2552,110.00,"",123,17619.0,0,"",65,"",0.1010,""
"GSWS10_123",2023-01-03 10:22:45,2553,110.00,"",123,17619.0,0,"",1,"",0.0960,""
"GSWS10_123",2023-01-03 23:40:45,2554,110.00,"",123,17619.0,0,"",2,"",0.1120,""
"GSWS10_123",2023-01-04 12:59:00,2555,110.00,"",123,17619.0,0,"",3,"",0.1100,""
"GSWS10_123",2023-01-05 02:17:00,2556,110.00,"",123,17619.0,0,"",4,"",0.1100,""
"GSWS10_123",2023-01-05 15:35:00,2557,110.00,"",123,17619.0,0,"",5,"",0.1010,""
"GSWS10_123",2023-01-06 04:53:00,2558,110.00,"",123,17619.0,0,"",6,"",0.0950,""
"GSWS10_123",2023-01-06 18:11:00,2559,110.00,"",123,17619.0,0,"",7,"",0.0910,""
"GSWS10_123",2023-01-07 07:29:00,2560,110.00,"",123,17619.0,0,"",8,"",0.0860,""
"GSWS10_123",2023-01-07 20:47:00,2561,110.00,"",123,17619.0,0,"",9,"",0.0850,""
"GSWS10_123",2023-01-08 10:05:00,2562,110.00,"",123,17619.0,0,"",10,"",0.0860,""
"GSWS10_123",2023-01-08 23:23:00,2563,110.00,"",123,17619.0,0,"",11,"",0.0790,""
"GSWS10_123",2023-01-09 12:41:00,2564,110.00,"",123,17619.0,0,"",12,"",0.0890,""
"GSWS10_123",2023-01-10 01:59:00,2565,110.00,"",123,17619.0,0,"",13,"",0.0830,""
"GSWS10_123",2023-01-10 15:17:00,2566,110.00,"",123,17619.0,0,"",14,"",0.0810,""
"GSWS10_123",2023-01-11 04:35:00,2567,110.00,"",123,17619.0,0,"",15,"",0.0730,""
"GSWS10_123",2023-01-11 17:53:00,2568,110.00,"",123,17619.0,0,"",16,"",0.0740,""
"GSWS10_123",2023-01-12 07:11:00,2569,110.00,"",123,17619.0,0,"",17,"",0.0990,""
"GSWS10_123",2023-01-12 20:29:00,2570,110.00,"",123,17619.0,0,"",18,"",0.0990,""
"GSWS10_123",2023-01-13 09:47:00,2571,110.00,"",123,17619.0,0,"",19,"",0.0950,""
"GSWS10_123",2023-01-13 23:05:00,2572,110.00,"",123,17619.0,0,"",20,"",0.1000,""
"GSWS10_123",2023-01-14 12:23:00,2573,110.00,"",123,17619.0,0,"",21,"",0.1020,""
"GSWS10_123",2023-01-15 01:41:00,2574,110.00,"",123,17619.0,0,"",22,"",0.0970,""
"GSWS10_123",2023-01-15 14:59:00,2575,110.00,"",123,17619.0,0,"",23,"",0.0990,""
"GSWS10_123",2023-01-16 04:17:00,2576,110.00,"",123,17619.0,0,"",24,"",0.0960,""
"GSWS10_123",2023-01-16 17:35:00,2577,110.00,"",123,17619.0,0,"",25,"",0.0910,""
"GSWS10_123",2023-01-17 06:53:00,2578,110.00,"",123,17619.0,0,"",26,"",0.0830,""
"GSWS10_123",2023-01-17 20:11:00,2579,110.00,"",123,17619.0,0,"",27,"",0.0790,""
"GSWS10_123",2023-01-18 09:29:00,2580,110.00,"",123,17619.0,0,"",28,"",0.0750,""
"GSWS10_123",2023-01-18 22:47:00,2581,110.00,"",123,17619.0,0,"",29,"",0.0730,""
"GSWS10_123",2023-01-19 12:05:00,2582,110.00,"",123,17619.0,0,"",30,"",0.0660,""
"GSWS10_123",2023-01-20 01:23:00,2583,110.00,"",123,17619.0,0,"",31,"",0.0620,""
"GSWS10_123",2023-01-20 14:41:00,2584,110.00,"",123,17619.0,0,"",32,"",0.0590,""
"GSWS10_123",2023-01-21 03:59:00,2585,110.00,"",123,17619.0,0,"",33,"",0.0570,""
"GSWS10_123",2023-01-21 17:17:00,2586,110.00,"",123,17619.0,0,"",34,"",0.0570,""
"GSWS10_123",2023-01-22 06:35:00,2587,110.00,"",123,17619.0,0,"",35,"",0.0570,""
"GSWS10_123",2023-01-22 19:53:15,2588,110.00,"",123,17619.0,0,"",36,"",0.0560,""
"GSWS10_123",2023-01-23 09:11:15,2589,110.00,"",123,17619.0,0,"",37,"",0.0550,""
"GSWS10_123",2023-01-23 22:29:15,2590,110.00,"",123,17619.0,0,"",38,"",0.0530,""
"GSWS10_123",2023-01-24 10:55:45,2591,110.00,"",123,17619.0,0,"",39,"",0.0530,""
"GSWS10_123",2023-01-24 11:47:15,2592,110.00,"",123,17619.0,0,"",1,"",0.0510,""
"GSWS10_123",2023-01-25 01:05:15,2593,110.00,"",123,17619.0,0,"",2,"",0.0490,""
"GSWS10_123",2023-01-25 14:23:15,2594,110.00,"",123,17619.0,0,"",3,"",0.0480,""
"GSWS10_123",2023-01-26 03:41:15,2595,110.00,"",123,17619.0,0,"",4,"",0.0470,""
"GSWS10_123",2023-01-26 16:59:15,2596,110.00,"",123,17619.0,0,"",5,"",0.0460,""
"GSWS10_123",2023-01-27 06:17:15,2597,110.00,"",123,17619.0,0,"",6,"",0.0460,""
"GSWS10_123",2023-01-27 19:35:15,2598,110.00,"",123,17619.0,0,"",7,"",0.0460,""
"GSWS10_123",2023-01-28 08:53:15,2599,110.00,"",123,17619.0,0,"",8,"",0.0440,""
"GSWS10_123",2023-01-28 22:11:15,2600,110.00,"",123,17619.0,0,"",9,"",0.0440,""
"GSWS10_123",2023-01-29 11:29:15,2601,110.00,"",123,17619.0,0,"",10,"",0.0430,""
"GSWS10_123",2023-01-31 03:23:15,2602,110.00,"",123,17619.0,0,"",11,"",0.0410,""
"GSWS10_123",2023-01-31 16:41:15,2603,110.00,"",123,17619.0,0,"",12,"",0.0400,""
"GSWS10_123",2023-02-01 05:59:15,2604,110.00,"",123,17619.0,0,"",13,"",0.0400,""
"GSWS10_123",2023-02-01 19:17:15,2605,110.00,"",123,17619.0,0,"",14,"",0.0400,""
"GSWS10_123",2023-02-02 08:35:15,2606,110.00,"",123,17619.0,0,"",15,"",0.0390,""
"GSWS10_123",2023-02-02 21:53:15,2607,110.00,"",123,17619.0,0,"",16,"",0.0380,""
"GSWS10_123",2023-02-03 11:11:15,2608,110.00,"",123,17619.0,0,"",17,"",0.0380,""
"GSWS10_123",2023-02-04 00:29:15,2609,110.00,"",123,17619.0,0,"",18,"",0.0370,""
"GSWS10_123",2023-02-04 13:47:15,2610,110.00,"",123,17619.0,0,"",19,"",0.0370,""
"GSWS10_123",2023-02-05 03:05:15,2611,110.00,"",123,17619.0,0,"",20,"",0.0400,""
"GSWS10_123",2023-02-05 16:23:15,2612,110.00,"",123,17619.0,0,"",21,"",0.0780,""
"GSWS10_123",2023-02-06 05:41:15,2613,110.00,"",123,17619.0,0,"",22,"",0.0920,""
"GSWS10_123",2023-02-06 18:59:15,2614,110.00,"",123,17619.0,0,"",23,"",0.0740,""
"GSWS10_123",2023-02-07 08:17:15,2615,110.00,"",123,17619.0,0,"",24,"",0.0670,""
"GSWS10_123",2023-02-07 21:35:15,2616,110.00,"",123,17619.0,0,"",25,"",0.1540,""
"GSWS10_123",2023-02-08 10:53:15,2617,110.00,"",123,17619.0,0,"",26,"",0.1370,""
"GSWS10_123",2023-02-09 00:11:15,2618,110.00,"",123,17619.0,0,"",27,"",0.1110,""
"GSWS10_123",2023-02-09 13:29:15,2619,110.00,"",123,17619.0,0,"",28,"",0.1000,""
"GSWS10_123",2023-02-10 02:47:15,2620,110.00,"",123,17619.0,0,"",29,"",0.0850,""
"GSWS10_123",2023-02-10 16:05:15,2621,110.00,"",123,17619.0,0,"",30,"",0.0750,""
"GSWS10_123",2023-02-11 05:23:15,2622,110.00,"",123,17619.0,0,"",31,"",0.0660,""
"GSWS10_123",2023-02-11 18:41:15,2623,110.00,"",123,17619.0,0,"",32,"",0.0580,""
"GSWS10_123",2023-02-12 07:59:15,2624,110.00,"",123,17619.0,0,"",33,"",0.0530,""
"GSWS10_123",2023-02-12 21:17:15,2625,110.00,"",123,17619.0,0,"",34,"",0.0510,""
"GSWS10_123",2023-02-13 10:35:15,2626,110.00,"",123,17619.0,0,"",35,"",0.0510,""
"GSWS10_123",2023-02-13 23:53:15,2627,110.00,"",123,17619.0,0,"",36,"",0.0550,""
"GSWS10_123",2023-02-14 13:11:15,2628,110.00,"",123,17619.0,0,"",37,"",0.0490,""
"GSWS10_123",2023-02-15 02:29:15,2629,110.00,"",123,17619.0,0,"",1,"",0.0540,""
"GSWS10_123",2023-02-15 15:47:15,2630,110.00,"",123,17619.0,0,"",2,"",0.0510,""